Time,TemperatureF,DewpointF,PressureIn,WindDirection,WindDirectionDegrees,WindSpeedMPH,WindSpeedGustMPH,Humidity,HourlyPrecipIn,Conditions,Clouds,dailyrainin,SoftwareType,DateUTC
2013-02-08 00:00:00,38.3,33.9,30.01,WNW,292,0.0,0.0,84,0.02,,CLR,0.65,VWS V12.08,2013-02-08 05:00:00,
2013-02-08 00:02:00,38.3,33.9,30.01,WNW,292,0.0,0.0,84,0.02,,CLR,0.65,VWS V12.08,2013-02-08 05:02:00,
2013-02-08 00:07:00,38.5,34.1,30.01,WNW,292,0.0,0.0,84,0.02,,CLR,0.65,VWS V12.08,2013-02-08 05:07:00,
2013-02-08 00:12:00,38.5,34.1,30.01,WNW,292,0.0,0.0,84,0.02,,CLR,0.65,VWS V12.08,2013-02-08 05:12:00,
2013-02-08 00:17:00,38.5,34.1,30.00,WNW,292,0.0,0.0,84,0.02,,CLR,0.65,VWS V12.08,2013-02-08 05:17:00,
2013-02-08 00:22:00,38.5,33.8,30.00,WNW,292,0.0,0.0,83,0.02,,CLR,0.65,VWS V12.08,2013-02-08 05:22:00,
2013-02-08 00:27:00,38.5,33.8,30.00,WNW,292,0.0,0.0,83,0.00,,CLR,0.65,VWS V12.08,2013-02-08 05:27:00,
2013-02-08 00:32:00,38.5,34.1,30.00,WNW,292,0.0,0.0,84,0.00,,CLR,0.65,VWS V12.08,2013-02-08 05:32:00,
2013-02-08 00:37:00,38.5,34.1,30.00,WNW,292,0.0,0.0,84,0.00,,CLR,0.65,VWS V12.08,2013-02-08 05:37:00,
2013-02-08 00:42:00,38.5,34.1,29.99,WNW,292,0.0,2.0,84,0.00,,CLR,0.65,VWS V12.08,2013-02-08 05:42:00,
2013-02-08 00:47:00,38.5,34.1,29.98,WNW,292,0.0,2.0,84,0.00,,CLR,0.65,VWS V12.08,2013-02-08 05:47:00,
2013-02-08 00:52:00,38.5,34.1,29.98,WNW,292,0.0,2.0,84,0.00,,CLR,0.65,VWS V12.08,2013-02-08 05:52:00,
2013-02-08 00:57:00,38.5,34.1,29.98,WNW,292,0.0,2.0,84,0.00,,CLR,0.65,VWS V12.08,2013-02-08 05:57:00,
2013-02-08 01:02:00,38.5,34.1,29.98,WNW,292,0.0,0.0,84,0.00,,CLR,0.65,VWS V12.08,2013-02-08 06:02:00,
2013-02-08 01:07:00,38.5,34.1,29.98,WNW,292,0.0,0.0,84,0.00,,CLR,0.65,VWS V12.08,2013-02-08 06:07:00,
2013-02-08 01:12:00,38.5,34.1,29.98,WNW,292,0.0,0.0,84,0.00,,CLR,0.65,VWS V12.08,2013-02-08 06:12:00,
2013-02-08 01:17:00,38.5,34.1,29.98,WNW,292,0.0,0.0,84,0.00,,CLR,0.65,VWS V12.08,2013-02-08 06:17:00,
2013-02-08 01:22:00,38.5,34.1,29.98,West,270,0.0,0.0,84,0.00,,CLR,0.65,VWS V12.08,2013-02-08 06:22:00,
2013-02-08 01:27:00,38.5,34.1,29.97,West,270,0.0,0.0,84,0.00,,CLR,0.65,VWS V12.08,2013-02-08 06:27:00,
2013-02-08 01:32:00,38.5,34.1,29.97,West,270,0.0,0.0,84,0.00,,CLR,0.65,VWS V12.08,2013-02-08 06:32:00,
2013-02-08 01:37:00,38.5,34.1,29.96,West,270,0.0,0.0,84,0.00,,CLR,0.65,VWS V12.08,2013-02-08 06:37:00,
2013-02-08 01:42:00,38.5,34.1,29.96,West,270,0.0,0.0,84,0.00,,CLR,0.65,VWS V12.08,2013-02-08 06:42:00,
2013-02-08 01:47:00,38.7,34.2,29.96,West,270,0.0,0.0,84,0.00,,CLR,0.65,VWS V12.08,2013-02-08 06:47:00,
2013-02-08 01:52:00,38.7,34.2,29.95,West,270,0.0,0.0,84,0.00,,CLR,0.65,VWS V12.08,2013-02-08 06:52:00,
2013-02-08 01:57:00,38.7,34.2,29.95,West,270,0.0,0.0,84,0.00,,CLR,0.65,VWS V12.08,2013-02-08 06:57:00,
2013-02-08 02:02:00,38.8,34.4,29.95,West,270,0.0,0.0,84,0.00,,CLR,0.65,VWS V12.08,2013-02-08 07:02:00,
2013-02-08 02:07:00,38.8,34.4,29.94,West,270,0.0,0.0,84,0.00,,CLR,0.65,VWS V12.08,2013-02-08 07:07:00,
2013-02-08 02:12:00,38.8,34.4,29.94,WSW,248,0.0,0.0,84,0.00,,CLR,0.65,VWS V12.08,2013-02-08 07:12:00,
2013-02-08 02:17:00,38.8,34.1,29.94,WSW,248,0.0,0.0,83,0.00,,CLR,0.65,VWS V12.08,2013-02-08 07:17:00,
2013-02-08 02:22:00,38.8,34.1,29.93,WSW,248,0.0,0.0,83,0.00,,CLR,0.65,VWS V12.08,2013-02-08 07:22:00,
2013-02-08 02:27:00,38.8,34.1,29.93,WSW,248,0.0,0.0,83,0.00,,CLR,0.65,VWS V12.08,2013-02-08 07:27:00,
2013-02-08 02:32:00,38.8,34.1,29.94,WSW,248,0.0,0.0,83,0.00,,CLR,0.65,VWS V12.08,2013-02-08 07:32:00,
2013-02-08 02:37:00,38.8,34.1,29.93,WSW,248,0.0,0.0,83,0.00,,CLR,0.65,VWS V12.08,2013-02-08 07:37:00,
2013-02-08 02:42:00,38.8,34.1,29.93,WSW,248,0.0,0.0,83,0.00,,CLR,0.65,VWS V12.08,2013-02-08 07:42:00,
2013-02-08 02:47:00,38.8,34.1,29.93,WSW,248,0.0,0.0,83,0.00,,CLR,0.65,VWS V12.08,2013-02-08 07:47:00,
2013-02-08 02:52:00,38.8,34.1,29.93,WSW,248,0.0,0.0,83,0.00,,CLR,0.65,VWS V12.08,2013-02-08 07:52:00,
2013-02-08 02:57:00,38.8,34.4,29.93,WNW,292,2.2,2.2,84,0.00,,CLR,0.65,VWS V12.08,2013-02-08 07:57:00,
2013-02-08 03:02:00,38.8,34.4,29.93,WNW,292,0.0,0.0,84,0.00,,CLR,0.65,VWS V12.08,2013-02-08 08:02:00,
2013-02-08 03:07:00,39.0,34.6,29.93,West,270,0.0,1.3,84,0.00,,CLR,0.65,VWS V12.08,2013-02-08 08:07:00,
2013-02-08 03:12:00,39.0,34.6,29.93,WNW,292,0.0,1.3,84,0.00,,CLR,0.65,VWS V12.08,2013-02-08 08:12:00,
2013-02-08 03:17:00,39.0,34.6,29.93,WNW,292,0.0,1.3,84,0.00,,CLR,0.65,VWS V12.08,2013-02-08 08:17:00,
2013-02-08 03:22:00,39.0,34.6,29.93,WNW,292,0.0,0.0,84,0.00,,CLR,0.65,VWS V12.08,2013-02-08 08:22:00,
2013-02-08 03:27:00,39.0,34.6,29.93,WNW,292,0.0,0.0,84,0.00,,CLR,0.65,VWS V12.08,2013-02-08 08:27:00,
2013-02-08 03:32:00,39.0,34.6,29.93,WNW,292,0.0,0.0,84,0.00,,CLR,0.65,VWS V12.08,2013-02-08 08:32:00,
2013-02-08 03:37:00,39.2,34.8,29.93,WSW,248,0.0,0.0,84,0.00,,CLR,0.65,VWS V12.08,2013-02-08 08:37:00,
2013-02-08 03:43:00,39.2,34.8,29.93,WSW,248,0.0,0.0,84,0.00,,CLR,0.65,VWS V12.08,2013-02-08 08:43:00,
2013-02-08 03:48:00,39.2,34.8,29.93,West,270,0.0,0.0,84,0.00,,CLR,0.65,VWS V12.08,2013-02-08 08:48:00,
2013-02-08 03:53:00,39.4,35.0,29.94,West,270,0.0,0.0,84,0.00,,CLR,0.65,VWS V12.08,2013-02-08 08:53:00,
2013-02-08 03:58:00,39.4,35.0,29.93,West,270,0.0,0.0,84,0.00,,CLR,0.65,VWS V12.08,2013-02-08 08:58:00,
2013-02-08 04:03:00,39.4,35.0,29.93,West,270,0.0,0.0,84,0.00,,CLR,0.65,VWS V12.08,2013-02-08 09:03:00,
2013-02-08 04:08:00,39.4,35.0,29.93,WSW,248,0.0,0.0,84,0.00,,CLR,0.65,VWS V12.08,2013-02-08 09:08:00,
2013-02-08 04:13:00,39.4,35.0,29.93,WSW,248,0.0,0.0,84,0.00,,CLR,0.65,VWS V12.08,2013-02-08 09:13:00,
2013-02-08 04:18:00,39.4,35.0,29.93,NW,315,0.0,0.0,84,0.00,,CLR,0.65,VWS V12.08,2013-02-08 09:18:00,
2013-02-08 04:23:00,39.6,35.1,29.93,North,0,0.0,0.0,84,0.00,,CLR,0.65,VWS V12.08,2013-02-08 09:23:00,
2013-02-08 04:28:00,39.6,35.1,29.93,North,0,0.0,0.0,84,0.00,,CLR,0.65,VWS V12.08,2013-02-08 09:28:00,
2013-02-08 04:33:00,39.6,35.1,29.92,North,0,0.0,0.0,84,0.00,,CLR,0.65,VWS V12.08,2013-02-08 09:33:00,
2013-02-08 04:38:00,39.6,35.1,29.92,North,0,0.0,0.0,84,0.00,,CLR,0.65,VWS V12.08,2013-02-08 09:38:00,
2013-02-08 04:43:00,39.6,35.1,29.92,NE,45,0.0,0.0,84,0.00,,CLR,0.65,VWS V12.08,2013-02-08 09:43:00,
2013-02-08 04:48:00,39.7,35.3,29.93,ENE,68,0.0,0.0,84,0.00,,CLR,0.65,VWS V12.08,2013-02-08 09:48:00,
2013-02-08 04:53:00,39.7,35.3,29.92,ENE,68,0.0,0.0,84,0.00,,CLR,0.65,VWS V12.08,2013-02-08 09:53:00,
2013-02-08 04:58:00,39.7,35.3,29.92,ENE,68,0.0,0.0,84,0.00,,CLR,0.65,VWS V12.08,2013-02-08 09:58:00,
2013-02-08 05:03:00,39.7,35.3,29.92,ENE,68,0.0,0.0,84,0.00,,CLR,0.65,VWS V12.08,2013-02-08 10:03:00,
2013-02-08 05:08:00,39.7,35.3,29.91,ENE,68,0.0,0.0,84,0.00,,CLR,0.65,VWS V12.08,2013-02-08 10:08:00,
2013-02-08 05:13:00,39.7,35.3,29.92,ENE,68,0.0,0.0,84,0.00,,CLR,0.65,VWS V12.08,2013-02-08 10:13:00,
2013-02-08 05:18:00,39.7,35.3,29.92,WSW,248,0.0,0.0,84,0.00,,CLR,0.65,VWS V12.08,2013-02-08 10:18:00,
2013-02-08 05:23:00,39.7,35.3,29.91,WSW,248,0.0,0.0,84,0.00,,CLR,0.65,VWS V12.08,2013-02-08 10:23:00,
2013-02-08 05:28:00,39.7,35.3,29.91,ESE,112,0.0,0.0,84,0.00,,CLR,0.65,VWS V12.08,2013-02-08 10:28:00,
2013-02-08 05:33:00,39.7,35.3,29.91,ESE,112,0.0,0.0,84,0.00,,CLR,0.65,VWS V12.08,2013-02-08 10:33:00,
2013-02-08 05:38:00,39.9,35.5,29.91,ESE,112,0.0,0.0,84,0.00,,CLR,0.65,VWS V12.08,2013-02-08 10:38:00,
2013-02-08 05:43:00,39.9,35.5,29.91,ESE,112,0.0,0.0,84,0.00,,CLR,0.65,VWS V12.08,2013-02-08 10:43:00,
2013-02-08 05:48:00,39.9,35.5,29.91,ESE,112,0.0,0.0,84,0.00,,CLR,0.65,VWS V12.08,2013-02-08 10:48:00,
2013-02-08 05:53:00,39.9,35.5,29.91,ESE,112,0.0,0.0,84,0.00,,CLR,0.65,VWS V12.08,2013-02-08 10:53:00,
2013-02-08 05:58:00,39.9,35.5,29.91,ESE,112,0.0,0.0,84,0.00,,CLR,0.65,VWS V12.08,2013-02-08 10:58:00,
2013-02-08 06:03:00,40.1,35.7,29.91,ESE,112,0.0,0.0,84,0.00,,CLR,0.65,VWS V12.08,2013-02-08 11:03:00,
2013-02-08 06:08:00,39.9,35.5,29.91,ESE,112,0.0,0.0,84,0.00,,CLR,0.65,VWS V12.08,2013-02-08 11:08:00,
2013-02-08 06:13:00,40.1,35.7,29.90,ESE,112,0.0,0.0,84,0.00,,CLR,0.65,VWS V12.08,2013-02-08 11:13:00,
2013-02-08 06:18:00,40.1,35.7,29.91,ESE,112,0.0,0.0,84,0.00,,CLR,0.65,VWS V12.08,2013-02-08 11:18:00,
2013-02-08 06:23:00,40.1,35.7,29.91,ESE,112,0.0,0.0,84,0.00,,CLR,0.65,VWS V12.08,2013-02-08 11:23:00,
2013-02-08 06:28:00,39.9,35.5,29.91,ESE,112,0.0,0.0,84,0.00,,CLR,0.65,VWS V12.08,2013-02-08 11:28:00,
2013-02-08 06:33:00,39.9,35.5,29.91,ESE,112,0.0,0.0,84,0.00,,CLR,0.65,VWS V12.08,2013-02-08 11:33:00,
2013-02-08 06:38:00,39.9,35.5,29.90,ESE,112,0.0,0.0,84,0.00,,CLR,0.65,VWS V12.08,2013-02-08 11:38:00,
2013-02-08 06:43:00,39.7,35.3,29.90,ESE,112,0.0,0.0,84,0.00,,CLR,0.65,VWS V12.08,2013-02-08 11:43:00,
2013-02-08 06:48:00,39.7,35.3,29.90,ESE,112,0.0,0.0,84,0.00,,CLR,0.65,VWS V12.08,2013-02-08 11:48:00,
2013-02-08 06:53:00,39.7,35.3,29.90,ESE,112,0.0,0.0,84,0.00,,CLR,0.65,VWS V12.08,2013-02-08 11:53:00,
2013-02-08 06:58:00,39.7,35.3,29.90,ESE,112,0.0,0.0,84,0.00,,CLR,0.65,VWS V12.08,2013-02-08 11:58:00,
2013-02-08 07:03:00,39.7,35.3,29.91,ESE,112,0.0,0.0,84,0.00,,CLR,0.65,VWS V12.08,2013-02-08 12:03:00,
2013-02-08 07:08:00,39.6,35.1,29.90,ESE,112,0.0,0.0,84,0.00,,CLR,0.65,VWS V12.08,2013-02-08 12:08:00,
2013-02-08 07:13:00,39.4,35.0,29.90,ESE,112,0.0,0.0,84,0.00,,CLR,0.65,VWS V12.08,2013-02-08 12:13:00,
2013-02-08 07:18:00,39.4,35.0,29.90,ESE,112,0.0,0.0,84,0.00,,CLR,0.65,VWS V12.08,2013-02-08 12:18:00,
2013-02-08 07:23:00,39.2,34.8,29.90,ESE,112,0.0,0.0,84,0.00,,CLR,0.65,VWS V12.08,2013-02-08 12:23:00,
2013-02-08 07:28:00,39.0,34.6,29.90,ESE,112,0.0,0.0,84,0.00,,CLR,0.65,VWS V12.08,2013-02-08 12:28:00,
2013-02-08 07:33:00,39.0,34.6,29.91,ESE,112,0.0,0.0,84,0.00,,CLR,0.65,VWS V12.08,2013-02-08 12:33:00,
2013-02-08 07:38:00,39.0,34.6,29.91,ESE,112,0.0,0.0,84,0.00,,CLR,0.65,VWS V12.08,2013-02-08 12:38:00,
2013-02-08 07:43:00,39.2,35.1,29.91,ESE,112,0.0,0.0,85,0.00,,CLR,0.65,VWS V12.08,2013-02-08 12:43:00,
2013-02-08 07:48:00,39.4,35.2,29.91,ESE,112,0.0,0.0,85,0.00,,CLR,0.65,VWS V12.08,2013-02-08 12:48:00,
2013-02-08 07:53:00,39.6,35.4,29.91,ESE,112,0.0,0.0,85,0.00,,CLR,0.65,VWS V12.08,2013-02-08 12:53:00,
2013-02-08 07:58:00,39.7,35.6,29.91,ESE,112,0.0,0.0,85,0.00,,CLR,0.65,VWS V12.08,2013-02-08 12:58:00,
2013-02-08 08:03:00,39.9,35.8,29.91,ESE,112,0.0,0.0,85,0.00,,CLR,0.65,VWS V12.08,2013-02-08 13:03:00,
2013-02-08 08:08:00,39.9,35.8,29.91,ESE,112,0.0,0.0,85,0.00,,CLR,0.65,VWS V12.08,2013-02-08 13:08:00,
2013-02-08 08:13:00,39.9,35.8,29.91,ESE,112,0.0,0.0,85,0.00,,CLR,0.65,VWS V12.08,2013-02-08 13:13:00,
2013-02-08 08:18:00,40.3,36.1,29.91,ESE,112,0.0,0.0,85,0.00,,CLR,0.65,VWS V12.08,2013-02-08 13:18:00,
2013-02-08 08:23:00,40.3,36.1,29.91,ESE,112,0.0,0.0,85,0.00,,CLR,0.65,VWS V12.08,2013-02-08 13:23:00,
2013-02-08 08:28:00,40.6,36.5,29.90,ESE,112,0.0,0.0,85,0.00,,CLR,0.65,VWS V12.08,2013-02-08 13:28:00,
2013-02-08 08:33:00,40.8,36.7,29.91,ESE,112,0.0,0.0,85,0.00,,CLR,0.65,VWS V12.08,2013-02-08 13:33:00,
2013-02-08 08:38:00,41.2,37.0,29.91,ESE,112,0.0,0.0,85,0.00,,CLR,0.65,VWS V12.08,2013-02-08 13:38:00,
2013-02-08 08:43:00,41.2,37.3,29.91,ESE,112,0.0,0.0,86,0.00,,CLR,0.65,VWS V12.08,2013-02-08 13:43:00,
2013-02-08 08:48:00,41.5,37.7,29.91,ESE,112,0.0,0.0,86,0.00,,CLR,0.65,VWS V12.08,2013-02-08 13:48:00,
2013-02-08 08:53:00,41.7,37.8,29.91,ESE,112,0.0,0.0,86,0.00,,CLR,0.65,VWS V12.08,2013-02-08 13:53:00,
2013-02-08 08:58:00,42.1,38.2,29.91,ESE,112,0.0,0.0,86,0.00,,CLR,0.65,VWS V12.08,2013-02-08 13:58:00,
2013-02-08 09:03:00,42.1,38.2,29.91,ESE,112,0.0,0.0,86,0.00,,CLR,0.65,VWS V12.08,2013-02-08 14:03:00,
2013-02-08 09:08:00,42.6,38.4,29.91,ESE,112,0.0,0.0,85,0.00,,CLR,0.65,VWS V12.08,2013-02-08 14:08:00,
2013-02-08 09:13:00,42.8,38.6,29.92,ESE,112,0.0,0.0,85,0.00,,CLR,0.65,VWS V12.08,2013-02-08 14:13:00,
2013-02-08 09:18:00,43.0,38.8,29.91,ESE,112,0.0,0.0,85,0.00,,CLR,0.65,VWS V12.08,2013-02-08 14:18:00,
2013-02-08 09:23:00,43.5,39.3,29.91,NW,315,0.0,0.0,85,0.00,,CLR,0.65,VWS V12.08,2013-02-08 14:23:00,
2013-02-08 09:28:00,43.9,39.7,29.91,NW,315,0.0,0.0,85,0.00,,CLR,0.65,VWS V12.08,2013-02-08 14:28:00,
2013-02-08 09:33:00,43.9,39.7,29.91,NW,315,0.0,0.0,85,0.00,,CLR,0.65,VWS V12.08,2013-02-08 14:33:00,
2013-02-08 09:38:00,44.4,39.9,29.91,NW,315,0.0,0.0,84,0.00,,CLR,0.65,VWS V12.08,2013-02-08 14:38:00,
2013-02-08 09:43:00,44.4,39.9,29.91,NW,315,0.0,0.0,84,0.00,,CLR,0.65,VWS V12.08,2013-02-08 14:43:00,
2013-02-08 09:48:00,44.8,40.2,29.91,NW,315,0.0,0.0,84,0.00,,CLR,0.65,VWS V12.08,2013-02-08 14:48:00,
2013-02-08 09:53:00,45.0,40.4,29.90,NNW,338,0.0,0.0,84,0.00,,CLR,0.65,VWS V12.08,2013-02-08 14:53:00,
2013-02-08 09:58:00,45.0,40.4,29.91,NNW,338,0.0,0.0,84,0.00,,CLR,0.65,VWS V12.08,2013-02-08 14:58:00,
2013-02-08 10:03:00,45.7,40.8,29.91,WNW,292,2.7,2.7,83,0.00,,CLR,0.65,VWS V12.08,2013-02-08 15:03:00,
2013-02-08 10:08:00,46.0,41.2,29.91,West,270,0.0,2.7,83,0.00,,CLR,0.65,VWS V12.08,2013-02-08 15:08:00,
2013-02-08 10:13:00,46.2,41.3,29.91,West,270,0.0,2.7,83,0.00,,CLR,0.65,VWS V12.08,2013-02-08 15:13:00,
2013-02-08 10:18:00,46.0,40.9,29.91,NW,315,0.0,2.7,82,0.00,,CLR,0.65,VWS V12.08,2013-02-08 15:18:00,
2013-02-08 10:23:00,46.2,41.0,29.91,WNW,292,0.0,0.0,82,0.00,,CLR,0.65,VWS V12.08,2013-02-08 15:23:00,
2013-02-08 10:28:00,46.0,40.9,29.91,WNW,292,0.0,1.3,82,0.00,,CLR,0.65,VWS V12.08,2013-02-08 15:28:00,
2013-02-08 10:36:00,45.9,40.7,29.91,WNW,292,0.0,2.9,82,0.00,,CLR,0.65,VWS V12.08,2013-02-08 15:36:00,
2013-02-08 10:41:00,46.0,40.9,29.91,WSW,248,0.0,0.0,82,0.00,,CLR,0.65,VWS V12.08,2013-02-08 15:41:00,
2013-02-08 10:46:00,46.0,40.9,29.91,NW,315,0.0,1.6,82,0.00,,CLR,0.65,VWS V12.08,2013-02-08 15:46:00,
2013-02-08 10:51:00,46.2,41.0,29.91,West,270,0.0,1.6,82,0.00,,CLR,0.65,VWS V12.08,2013-02-08 15:51:00,
2013-02-08 10:56:00,46.6,41.4,29.91,WNW,292,0.0,1.6,82,0.00,,CLR,0.65,VWS V12.08,2013-02-08 15:56:00,
2013-02-08 11:01:00,47.3,42.1,29.91,WSW,248,2.0,2.5,82,0.00,,CLR,0.65,VWS V12.08,2013-02-08 16:01:00,
2013-02-08 11:06:00,48.0,42.5,29.91,SW,225,0.0,2.5,81,0.00,,CLR,0.65,VWS V12.08,2013-02-08 16:06:00,
2013-02-08 11:11:00,49.1,43.2,29.90,WSW,248,0.0,3.1,80,0.00,,CLR,0.65,VWS V12.08,2013-02-08 16:11:00,
2013-02-08 11:16:00,49.3,42.7,29.90,West,270,0.9,4.7,78,0.00,,CLR,0.65,VWS V12.08,2013-02-08 16:16:00,
2013-02-08 11:21:00,49.3,42.4,29.90,West,270,0.0,0.0,77,0.00,,CLR,0.65,VWS V12.08,2013-02-08 16:21:00,
2013-02-08 11:26:00,49.1,42.2,29.90,West,270,0.0,1.1,77,0.00,,CLR,0.65,VWS V12.08,2013-02-08 16:26:00,
2013-02-08 11:31:00,49.1,42.5,29.90,WNW,292,0.0,1.8,78,0.00,,CLR,0.65,VWS V12.08,2013-02-08 16:31:00,
2013-02-08 11:36:00,49.6,42.7,29.89,WSW,248,0.0,3.4,77,0.00,,CLR,0.65,VWS V12.08,2013-02-08 16:36:00,
2013-02-08 11:41:00,49.8,42.9,29.90,WSW,248,0.9,3.8,77,0.00,,CLR,0.65,VWS V12.08,2013-02-08 16:41:00,
2013-02-08 11:46:00,50.5,43.3,29.89,WSW,248,0.0,5.6,76,0.00,,CLR,0.65,VWS V12.08,2013-02-08 16:46:00,
2013-02-08 11:51:00,51.1,43.8,29.89,SW,225,2.2,5.6,76,0.00,,CLR,0.65,VWS V12.08,2013-02-08 16:51:00,
2013-02-08 11:56:00,51.8,44.1,29.89,South,180,0.0,6.9,75,0.00,,CLR,0.65,VWS V12.08,2013-02-08 16:56:00,
2013-02-08 12:01:00,52.3,44.7,29.88,ESE,112,2.9,2.9,75,0.00,,CLR,0.65,VWS V12.08,2013-02-08 17:01:00,
2013-02-08 12:06:00,53.1,44.7,29.88,SW,225,0.0,3.8,73,0.00,,CLR,0.65,VWS V12.08,2013-02-08 17:06:00,
2013-02-08 12:11:00,53.8,45.0,29.88,West,270,0.0,5.1,72,0.00,,CLR,0.65,VWS V12.08,2013-02-08 17:11:00,
2013-02-08 12:16:00,54.1,45.0,29.88,SE,135,0.0,5.1,71,0.00,,CLR,0.65,VWS V12.08,2013-02-08 17:16:00,
2013-02-08 12:21:00,54.5,45.3,29.88,SW,225,0.0,1.1,71,0.00,,CLR,0.65,VWS V12.08,2013-02-08 17:21:00,
2013-02-08 12:26:00,55.2,45.6,29.87,SSW,202,6.5,6.5,70,0.00,,CLR,0.65,VWS V12.08,2013-02-08 17:26:00,
2013-02-08 12:31:00,56.1,45.7,29.88,ESE,112,0.0,6.5,68,0.00,,CLR,0.65,VWS V12.08,2013-02-08 17:31:00,
2013-02-08 12:36:00,56.5,45.7,29.87,NNE,22,0.0,6.5,67,0.00,,CLR,0.65,VWS V12.08,2013-02-08 17:36:00,
2013-02-08 12:41:00,56.8,46.0,29.87,NW,315,7.2,7.2,67,0.00,,CLR,0.65,VWS V12.08,2013-02-08 17:41:00,
2013-02-08 12:46:00,56.8,45.6,29.87,WNW,292,1.8,8.5,66,0.00,,CLR,0.65,VWS V12.08,2013-02-08 17:46:00,
2013-02-08 12:51:00,56.5,45.3,29.87,WSW,248,0.0,8.5,66,0.00,,CLR,0.65,VWS V12.08,2013-02-08 17:51:00,
2013-02-08 12:56:00,56.8,45.2,29.87,WNW,292,4.5,8.5,65,0.00,,CLR,0.65,VWS V12.08,2013-02-08 17:56:00,
2013-02-08 13:01:00,56.7,44.6,29.87,West,270,0.0,3.1,64,0.00,,CLR,0.58,VWS V12.08,2013-02-08 18:01:00,
2013-02-08 13:06:00,56.8,45.2,29.87,South,180,0.0,5.8,65,0.00,,CLR,0.58,VWS V12.08,2013-02-08 18:06:00,
2013-02-08 13:11:00,56.8,45.2,29.87,SE,135,0.0,5.8,65,0.00,,CLR,0.58,VWS V12.08,2013-02-08 18:11:00,
2013-02-08 13:16:00,56.5,44.9,29.87,WSW,248,1.6,5.8,65,0.00,,CLR,0.58,VWS V12.08,2013-02-08 18:16:00,
2013-02-08 13:21:00,56.3,44.7,29.87,WSW,248,0.0,2.2,65,0.00,,CLR,0.58,VWS V12.08,2013-02-08 18:21:00,
2013-02-08 13:27:00,55.9,44.4,29.87,SW,225,0.0,11.4,65,0.00,,CLR,0.58,VWS V12.08,2013-02-08 18:27:00,
2013-02-08 13:32:00,55.2,43.7,29.87,West,270,0.0,11.4,65,0.00,,CLR,0.58,VWS V12.08,2013-02-08 18:32:00,
2013-02-08 13:37:00,54.7,42.3,29.87,NNW,338,0.0,11.4,63,0.00,,CLR,0.58,VWS V12.08,2013-02-08 18:37:00,
2013-02-08 13:42:00,54.5,43.0,29.87,WNW,292,5.4,6.0,65,0.00,,CLR,0.58,VWS V12.08,2013-02-08 18:42:00,
2013-02-08 13:47:00,54.5,43.0,29.86,SW,225,0.0,6.0,65,0.00,,CLR,0.58,VWS V12.08,2013-02-08 18:47:00,
2013-02-08 13:52:00,55.0,43.5,29.87,WNW,292,0.0,7.8,65,0.00,,CLR,0.58,VWS V12.08,2013-02-08 18:52:00,
2013-02-08 13:57:00,55.0,43.1,29.86,WSW,248,2.7,7.8,64,0.00,,CLR,0.58,VWS V12.08,2013-02-08 18:57:00,
2013-02-08 14:02:00,55.2,43.7,29.86,WNW,292,0.0,5.4,65,0.00,,CLR,0.48,VWS V12.08,2013-02-08 19:02:00,
2013-02-08 14:07:00,55.2,42.9,29.86,West,270,0.0,11.9,63,0.00,,CLR,0.48,VWS V12.08,2013-02-08 19:07:00,
2013-02-08 14:12:00,55.2,42.9,29.86,ESE,112,6.0,11.9,63,0.00,,CLR,0.48,VWS V12.08,2013-02-08 19:12:00,
2013-02-08 14:17:00,55.6,42.8,29.86,South,180,2.7,11.9,62,0.00,,CLR,0.48,VWS V12.08,2013-02-08 19:17:00,
2013-02-08 14:22:00,55.4,41.8,29.87,West,270,0.9,15.7,60,0.00,,CLR,0.48,VWS V12.08,2013-02-08 19:22:00,
2013-02-08 14:27:00,55.2,42.0,29.87,West,270,7.2,15.7,61,0.00,,CLR,0.48,VWS V12.08,2013-02-08 19:27:00,
2013-02-08 14:32:00,55.2,40.7,29.87,WNW,292,4.0,15.7,58,0.00,,CLR,0.48,VWS V12.08,2013-02-08 19:32:00,
2013-02-08 14:37:00,55.0,40.1,29.87,SSE,158,1.3,15.7,57,0.00,,CLR,0.48,VWS V12.08,2013-02-08 19:37:00,
2013-02-08 14:42:00,55.0,40.1,29.86,WNW,292,0.0,3.4,57,0.00,,CLR,0.48,VWS V12.08,2013-02-08 19:42:00,
2013-02-08 14:47:00,54.9,39.9,29.87,West,270,0.0,7.4,57,0.00,,CLR,0.48,VWS V12.08,2013-02-08 19:47:00,
2013-02-08 14:52:00,55.0,40.1,29.87,West,270,0.0,7.4,57,0.00,,CLR,0.48,VWS V12.08,2013-02-08 19:52:00,
2013-02-08 14:57:00,55.2,39.8,29.87,West,270,3.8,12.8,56,0.00,,CLR,0.48,VWS V12.08,2013-02-08 19:57:00,
2013-02-08 15:02:00,55.2,39.3,29.87,West,270,0.0,7.2,55,0.00,,CLR,0.39,VWS V12.08,2013-02-08 20:02:00,
2013-02-08 15:07:00,55.2,39.8,29.88,SE,135,0.0,8.1,56,0.00,,CLR,0.39,VWS V12.08,2013-02-08 20:07:00,
2013-02-08 15:12:00,55.0,38.7,29.88,NW,315,6.7,13.4,54,0.00,,CLR,0.39,VWS V12.08,2013-02-08 20:12:00,
2013-02-08 15:17:00,54.7,37.9,29.88,West,270,0.0,13.4,53,0.00,,CLR,0.39,VWS V12.08,2013-02-08 20:17:00,
2013-02-08 15:22:00,54.5,38.7,29.88,West,270,0.0,2.7,55,0.00,,CLR,0.39,VWS V12.08,2013-02-08 20:22:00,
2013-02-08 15:27:00,54.3,38.5,29.87,SW,225,0.0,4.0,55,0.00,,CLR,0.39,VWS V12.08,2013-02-08 20:27:00,
2013-02-08 15:32:00,54.1,38.3,29.87,WSW,248,2.9,6.3,55,0.00,,CLR,0.39,VWS V12.08,2013-02-08 20:32:00,
2013-02-08 15:37:00,54.0,38.6,29.88,NW,315,3.4,6.3,56,0.00,,CLR,0.39,VWS V12.08,2013-02-08 20:37:00,
2013-02-08 15:42:00,53.8,38.5,29.88,WNW,292,0.0,0.0,56,0.00,,CLR,0.39,VWS V12.08,2013-02-08 20:42:00,
2013-02-08 15:47:00,54.0,38.6,29.88,WSW,248,0.0,3.8,56,0.00,,CLR,0.39,VWS V12.08,2013-02-08 20:47:00,
2013-02-08 15:52:00,54.3,38.5,29.88,West,270,0.0,6.9,55,0.00,,CLR,0.39,VWS V12.08,2013-02-08 20:52:00,
2013-02-08 15:57:00,54.5,38.2,29.88,NW,315,1.1,6.9,54,0.00,,CLR,0.39,VWS V12.08,2013-02-08 20:57:00,
2013-02-08 16:02:00,54.5,38.7,29.88,NW,315,0.0,0.0,55,0.00,,CLR,0.35,VWS V12.08,2013-02-08 21:02:00,
2013-02-08 16:07:00,54.7,38.4,29.88,NNW,338,0.0,8.1,54,0.00,,CLR,0.35,VWS V12.08,2013-02-08 21:07:00,
2013-02-08 16:12:00,54.9,38.5,29.88,NW,315,6.9,14.8,54,0.00,,CLR,0.35,VWS V12.08,2013-02-08 21:12:00,
2013-02-08 16:17:00,55.0,36.2,29.88,WNW,292,14.3,14.8,49,0.00,,CLR,0.35,VWS V12.08,2013-02-08 21:17:00,
2013-02-08 16:22:00,55.2,34.8,29.88,West,270,5.8,10.1,46,0.00,,CLR,0.35,VWS V12.08,2013-02-08 21:22:00,
2013-02-08 16:27:00,55.2,34.8,29.88,NNW,338,4.0,10.1,46,0.00,,CLR,0.35,VWS V12.08,2013-02-08 21:27:00,
2013-02-08 16:32:00,55.2,34.3,29.89,NW,315,6.0,11.9,45,0.00,,CLR,0.35,VWS V12.08,2013-02-08 21:32:00,
2013-02-08 16:38:00,55.2,34.3,29.89,NNW,338,5.8,11.9,45,0.00,,CLR,0.35,VWS V12.08,2013-02-08 21:38:00,
2013-02-08 16:43:00,55.2,34.3,29.89,WNW,292,5.8,9.2,45,0.00,,CLR,0.35,VWS V12.08,2013-02-08 21:43:00,
2013-02-08 16:48:00,55.2,34.3,29.89,NW,315,4.0,11.6,45,0.00,,CLR,0.35,VWS V12.08,2013-02-08 21:48:00,
2013-02-08 16:53:00,55.0,34.7,29.89,NW,315,6.5,11.6,46,0.00,,CLR,0.35,VWS V12.08,2013-02-08 21:53:00,
2013-02-08 16:58:00,54.7,33.8,29.90,WNW,292,0.0,15.4,45,0.00,,CLR,0.35,VWS V12.08,2013-02-08 21:58:00,
2013-02-08 17:03:00,54.7,34.9,29.90,NW,315,1.1,5.4,47,0.00,,CLR,0.32,VWS V12.08,2013-02-08 22:03:00,
2013-02-08 17:08:00,54.1,34.4,29.91,West,270,0.7,8.3,47,0.00,,CLR,0.32,VWS V12.08,2013-02-08 22:08:00,
2013-02-08 17:13:00,54.0,34.2,29.90,NW,315,0.0,9.0,47,0.00,,CLR,0.32,VWS V12.08,2013-02-08 22:13:00,
2013-02-08 17:18:00,53.8,34.6,29.91,NW,315,12.3,12.3,48,0.00,,CLR,0.32,VWS V12.08,2013-02-08 22:18:00,
2013-02-08 17:23:00,53.4,34.8,29.91,WNW,292,6.5,6.5,49,0.00,,CLR,0.32,VWS V12.08,2013-02-08 22:23:00,
2013-02-08 17:28:00,53.1,34.9,29.91,WNW,292,0.0,12.3,50,0.00,,CLR,0.32,VWS V12.08,2013-02-08 22:28:00,
2013-02-08 17:33:00,52.5,34.4,29.92,WNW,292,4.3,12.3,50,0.00,,CLR,0.32,VWS V12.08,2013-02-08 22:33:00,
2013-02-08 17:38:00,52.3,34.8,29.92,NW,315,6.0,12.3,51,0.00,,CLR,0.32,VWS V12.08,2013-02-08 22:38:00,
2013-02-08 17:43:00,52.0,32.9,29.92,NW,315,2.5,9.0,48,0.00,,CLR,0.32,VWS V12.08,2013-02-08 22:43:00,
2013-02-08 17:48:00,51.6,32.6,29.93,NW,315,4.3,11.6,48,0.00,,CLR,0.32,VWS V12.08,2013-02-08 22:48:00,
2013-02-08 17:53:00,51.4,32.4,29.93,WNW,292,9.0,12.8,48,0.00,,CLR,0.32,VWS V12.08,2013-02-08 22:53:00,
2013-02-08 17:58:00,51.4,30.8,29.93,WNW,292,4.5,12.8,45,0.00,,CLR,0.32,VWS V12.08,2013-02-08 22:58:00,
2013-02-08 18:03:00,51.1,30.0,29.93,WNW,292,7.8,12.5,44,0.00,,CLR,0.26,VWS V12.08,2013-02-08 23:03:00,
2013-02-08 18:08:00,50.9,29.8,29.94,NW,315,3.4,12.5,44,0.00,,CLR,0.26,VWS V12.08,2013-02-08 23:08:00,
2013-02-08 18:13:00,50.5,29.5,29.94,NW,315,7.4,12.5,44,0.00,,CLR,0.26,VWS V12.08,2013-02-08 23:13:00,
2013-02-08 18:18:00,50.2,29.7,29.94,NW,315,1.6,13.9,45,0.00,,CLR,0.26,VWS V12.08,2013-02-08 23:18:00,
2013-02-08 18:23:00,49.8,29.9,29.95,NNW,338,4.0,18.1,46,0.00,,CLR,0.26,VWS V12.08,2013-02-08 23:23:00,
2013-02-08 18:28:00,49.6,30.2,29.95,NW,315,5.4,18.1,47,0.00,,CLR,0.26,VWS V12.08,2013-02-08 23:28:00,
2013-02-08 18:33:00,49.3,29.9,29.95,NW,315,7.4,18.1,47,0.00,,CLR,0.26,VWS V12.08,2013-02-08 23:33:00,
2013-02-08 18:38:00,49.1,30.3,29.95,NW,315,6.0,18.1,48,0.00,,CLR,0.26,VWS V12.08,2013-02-08 23:38:00,
2013-02-08 18:43:00,48.7,30.5,29.96,NNW,338,7.8,8.3,49,0.00,,CLR,0.26,VWS V12.08,2013-02-08 23:43:00,
2013-02-08 18:48:00,48.4,29.6,29.96,WNW,292,6.0,9.2,48,0.00,,CLR,0.26,VWS V12.08,2013-02-08 23:48:00,
2013-02-08 18:53:00,48.0,29.8,29.96,NW,315,2.7,9.8,49,0.00,,CLR,0.26,VWS V12.08,2013-02-08 23:53:00,
2013-02-08 18:58:00,48.0,29.8,29.96,NW,315,7.4,12.5,49,0.00,,CLR,0.26,VWS V12.08,2013-02-08 23:58:00,
2013-02-08 19:03:00,47.8,29.6,29.97,WNW,292,0.7,10.1,49,0.00,,CLR,0.19,VWS V12.08,2013-02-09 00:03:00,
2013-02-08 19:08:00,47.5,29.8,29.97,WNW,292,4.9,11.0,50,0.00,,CLR,0.19,VWS V12.08,2013-02-09 00:08:00,
2013-02-08 19:13:00,47.3,29.6,29.97,NW,315,6.7,16.6,50,0.00,,CLR,0.19,VWS V12.08,2013-02-09 00:13:00,
2013-02-08 19:18:00,47.1,29.9,29.98,NW,315,5.1,16.6,51,0.00,,CLR,0.19,VWS V12.08,2013-02-09 00:18:00,
2013-02-08 19:23:00,46.9,29.8,29.98,West,270,1.3,9.4,51,0.00,,CLR,0.19,VWS V12.08,2013-02-09 00:23:00,
2013-02-08 19:28:00,46.8,29.6,29.98,WNW,292,8.7,10.3,51,0.00,,CLR,0.19,VWS V12.08,2013-02-09 00:28:00,
2013-02-08 19:33:00,46.6,29.9,29.98,NW,315,1.8,10.3,52,0.00,,CLR,0.19,VWS V12.08,2013-02-09 00:33:00,
2013-02-08 19:38:00,46.6,30.4,29.98,WNW,292,5.6,10.3,53,0.00,,CLR,0.19,VWS V12.08,2013-02-09 00:38:00,
2013-02-08 19:43:00,46.2,30.0,29.98,WNW,292,2.5,5.6,53,0.00,,CLR,0.19,VWS V12.08,2013-02-09 00:43:00,
2013-02-08 19:48:00,46.0,29.9,29.98,WNW,292,6.0,6.9,53,0.00,,CLR,0.19,VWS V12.08,2013-02-09 00:48:00,
2013-02-08 19:53:00,46.0,30.3,29.99,NW,315,3.6,11.4,54,0.00,,CLR,0.19,VWS V12.08,2013-02-09 00:53:00,
2013-02-08 19:58:00,45.7,30.0,29.99,NW,315,11.9,12.1,54,0.00,,CLR,0.19,VWS V12.08,2013-02-09 00:58:00,
2013-02-08 20:03:00,45.7,30.0,29.99,NW,315,3.4,7.6,54,0.00,,CLR,0.11,VWS V12.08,2013-02-09 01:03:00,
2013-02-08 20:08:00,45.5,29.8,29.99,WNW,292,0.0,8.7,54,0.00,,CLR,0.11,VWS V12.08,2013-02-09 01:08:00,
2013-02-08 20:13:00,45.3,30.1,30.00,SW,225,1.1,11.9,55,0.00,,CLR,0.11,VWS V12.08,2013-02-09 01:13:00,
2013-02-08 20:18:00,45.1,29.5,30.00,NW,315,4.7,11.9,54,0.00,,CLR,0.11,VWS V12.08,2013-02-09 01:18:00,
2013-02-08 20:23:00,45.0,29.3,30.00,NW,315,0.0,8.7,54,0.00,,CLR,0.11,VWS V12.08,2013-02-09 01:23:00,
2013-02-08 20:28:00,44.8,29.6,30.01,WSW,248,0.0,11.2,55,0.00,,CLR,0.11,VWS V12.08,2013-02-09 01:28:00,
2013-02-08 20:33:00,44.4,29.3,30.01,West,270,2.9,11.2,55,0.00,,CLR,0.11,VWS V12.08,2013-02-09 01:33:00,
2013-02-08 20:38:00,44.2,29.1,30.01,NW,315,0.0,11.2,55,0.00,,CLR,0.11,VWS V12.08,2013-02-09 01:38:00,
2013-02-08 20:43:00,44.1,28.9,30.02,WNW,292,1.3,9.2,55,0.00,,CLR,0.11,VWS V12.08,2013-02-09 01:43:00,
2013-02-08 20:48:00,43.7,28.6,30.02,WNW,292,3.1,11.0,55,0.00,,CLR,0.11,VWS V12.08,2013-02-09 01:48:00,
2013-02-08 20:53:00,43.5,28.9,30.02,NW,315,9.8,11.0,56,0.00,,CLR,0.11,VWS V12.08,2013-02-09 01:53:00,
2013-02-08 20:58:00,43.3,28.7,30.02,WNW,292,4.7,17.7,56,0.00,,CLR,0.11,VWS V12.08,2013-02-09 01:58:00,
2013-02-08 21:03:00,43.2,28.5,30.03,NW,315,5.1,11.0,56,0.00,,CLR,0.06,VWS V12.08,2013-02-09 02:03:00,
2013-02-08 21:08:00,43.2,28.5,30.03,NW,315,0.0,11.0,56,0.00,,CLR,0.06,VWS V12.08,2013-02-09 02:08:00,
2013-02-08 21:13:00,43.0,28.4,30.04,WNW,292,5.6,11.0,56,0.00,,CLR,0.06,VWS V12.08,2013-02-09 02:13:00,
2013-02-08 21:18:00,42.6,28.0,30.04,NW,315,0.0,11.0,56,0.00,,CLR,0.06,VWS V12.08,2013-02-09 02:18:00,
2013-02-08 21:23:00,42.4,27.9,30.04,West,270,0.0,8.3,56,0.00,,CLR,0.06,VWS V12.08,2013-02-09 02:23:00,
2013-02-08 21:28:00,42.4,28.3,30.04,NW,315,6.7,8.3,57,0.00,,CLR,0.06,VWS V12.08,2013-02-09 02:28:00,
2013-02-08 21:33:00,42.1,28.0,30.04,WNW,292,0.0,8.3,57,0.00,,CLR,0.06,VWS V12.08,2013-02-09 02:33:00,
2013-02-08 21:38:00,41.9,27.8,30.05,WNW,292,6.5,12.5,57,0.00,,CLR,0.06,VWS V12.08,2013-02-09 02:38:00,
2013-02-08 21:43:00,41.7,27.6,30.05,West,270,0.0,9.8,57,0.00,,CLR,0.06,VWS V12.08,2013-02-09 02:43:00,
2013-02-08 21:48:00,41.7,27.6,30.05,WNW,292,0.0,13.0,57,0.00,,CLR,0.06,VWS V12.08,2013-02-09 02:48:00,
2013-02-08 21:53:00,41.7,27.6,30.06,West,270,1.8,13.0,57,0.00,,CLR,0.06,VWS V12.08,2013-02-09 02:53:00,
2013-02-08 21:59:00,41.7,27.6,30.06,WNW,292,0.0,13.0,57,0.00,,CLR,0.06,VWS V12.08,2013-02-09 02:59:00,
2013-02-08 22:04:00,41.5,27.5,30.06,West,270,2.9,7.8,57,0.00,,CLR,0.02,VWS V12.08,2013-02-09 03:04:00,
2013-02-08 22:09:00,41.5,27.5,30.06,West,270,0.0,9.2,57,0.00,,CLR,0.02,VWS V12.08,2013-02-09 03:09:00,
2013-02-08 22:14:00,41.5,27.5,30.06,WNW,292,9.2,12.8,57,0.00,,CLR,0.02,VWS V12.08,2013-02-09 03:14:00,
2013-02-08 22:19:00,41.4,26.9,30.06,WSW,248,0.0,19.7,56,0.00,,CLR,0.02,VWS V12.08,2013-02-09 03:19:00,
2013-02-08 22:24:00,41.2,26.7,30.06,NNE,22,0.0,8.1,56,0.00,,CLR,0.02,VWS V12.08,2013-02-09 03:24:00,
2013-02-08 22:29:00,41.0,26.5,30.06,WNW,292,1.6,11.0,56,0.00,,CLR,0.02,VWS V12.08,2013-02-09 03:29:00,
2013-02-08 22:34:00,40.8,26.4,30.06,North,0,0.0,11.0,56,0.00,,CLR,0.02,VWS V12.08,2013-02-09 03:34:00,
2013-02-08 22:39:00,40.8,25.9,30.06,WNW,292,0.0,20.6,55,0.00,,CLR,0.02,VWS V12.08,2013-02-09 03:39:00,
2013-02-08 22:44:00,40.8,25.9,30.06,NNW,338,2.9,9.2,55,0.00,,CLR,0.02,VWS V12.08,2013-02-09 03:44:00,
2013-02-08 22:49:00,40.8,26.4,30.06,WNW,292,5.1,9.2,56,0.00,,CLR,0.02,VWS V12.08,2013-02-09 03:49:00,
2013-02-08 22:54:00,40.6,25.8,30.06,WNW,292,7.4,13.6,55,0.00,,CLR,0.02,VWS V12.08,2013-02-09 03:54:00,
2013-02-08 22:59:00,40.6,25.8,30.06,North,0,6.0,13.6,55,0.00,,CLR,0.02,VWS V12.08,2013-02-09 03:59:00,
2013-02-08 23:04:00,40.5,25.6,30.06,WNW,292,11.0,13.4,55,0.00,,CLR,0.00,VWS V12.08,2013-02-09 04:04:00,
2013-02-08 23:09:00,40.3,25.4,30.06,NW,315,4.7,13.4,55,0.00,,CLR,0.00,VWS V12.08,2013-02-09 04:09:00,
2013-02-08 23:14:00,40.3,25.4,30.06,NNW,338,1.8,13.4,55,0.00,,CLR,0.00,VWS V12.08,2013-02-09 04:14:00,
2013-02-08 23:19:00,40.1,25.2,30.07,NW,315,3.1,13.4,55,0.00,,CLR,0.00,VWS V12.08,2013-02-09 04:19:00,
2013-02-08 23:24:00,39.9,25.1,30.07,WNW,292,1.1,8.5,55,0.00,,CLR,0.00,VWS V12.08,2013-02-09 04:24:00,
2013-02-08 23:29:00,39.9,25.1,30.06,WNW,292,1.8,8.5,55,0.00,,CLR,0.00,VWS V12.08,2013-02-09 04:29:00,
2013-02-08 23:34:00,39.7,24.9,30.07,West,270,3.4,8.5,55,0.00,,CLR,0.00,VWS V12.08,2013-02-09 04:34:00,
2013-02-08 23:39:00,39.6,24.7,30.07,NW,315,8.7,8.7,55,0.00,,CLR,0.00,VWS V12.08,2013-02-09 04:39:00,
2013-02-08 23:44:00,39.4,25.0,30.07,WNW,292,0.0,7.4,56,0.00,,CLR,0.00,VWS V12.08,2013-02-09 04:44:00,
2013-02-08 23:49:00,39.4,25.0,30.08,West,270,0.0,8.1,56,0.00,,CLR,0.00,VWS V12.08,2013-02-09 04:49:00,
2013-02-08 23:54:00,39.2,24.8,30.08,SW,225,0.0,8.1,56,0.00,,CLR,0.00,VWS V12.08,2013-02-09 04:54:00,
2013-02-08 23:59:00,39.0,24.7,30.08,WNW,292,6.0,8.1,56,0.00,,CLR,0.00,VWS V12.08,2013-02-09 04:59:00,